W1VB-1 Weather Reports


time (UTC)temp
C
wind
direction
speed
KPH
gust
KPH
rain 1hr
cm
rain 24hr
cm
rain mn
cm
humidity
%
barometer
mb
20260508082015 20 265 0.0 1.6 0.00 0.00 0.00 93 1014.1
20260508081015 20 0.0 0.0 0.00 0.00 0.00 93 1014.2
20260508080015 21 265 0.0 1.6 0.00 0.00 0.00 93 1014.1
20260508075015 21 0.0 1.6 0.00 0.00 0.00 93 1014.2
20260508074035 21 265 0.0 1.6 0.00 0.00 0.00 93 1014.2
20260508073015 21 0.0 0.0 0.00 0.00 0.00 93 1014.1
20260508072016 21 0.0 0.0 0.00 0.00 0.00 94 1014.1
20260508071015 21 0.0 0.0 0.00 0.00 0.00 93 1014.2
20260508070015 21 0.0 0.0 0.00 0.00 0.00 93 1014.1
20260508065015 21 0.0 0.0 0.00 0.00 0.00 93 1014.1
20260508064015 21 266 0.0 1.6 0.00 0.00 0.00 93 1014.1
20260508063016 22 0.0 1.6 0.00 0.00 0.00 93 1014.1
20260508062015 22 266 0.0 1.6 0.00 0.00 0.00 93 1014.2
20260508061035 22 266 0.0 1.6 0.00 0.00 0.00 93 1014.3
20260508060035 22 266 0.0 1.6 0.00 0.00 0.00 93 1014.4
20260508055015 22 0.0 0.0 0.00 0.00 0.00 93 1014.5
20260508054515 22 266 0.0 3.2 0.00 0.00 0.00 93 1014.5
20260508053515 22 265 0.0 3.2 0.00 0.00 0.00 93 1014.6
20260508052535 22 225 0.0 1.6 0.00 0.00 0.00 93 1014.6
20260508051555 22 284 0.0 3.2 0.00 0.00 0.00 92 1014.6
20260508050515 22 290 0.0 1.6 0.00 0.00 0.00 92 1014.7
20260508045515 22 285 0.0 1.6 0.00 0.00 0.00 92 1014.8
20260508044515 22 285 0.0 1.6 0.00 0.00 0.00 92 1014.9
20260508043515 22 285 0.0 1.6 0.00 0.00 0.00 92 1014.8
20260508042535 22 285 0.0 1.6 0.00 0.00 0.00 91 1014.9
20260508041515 22 280 0.0 3.2 0.00 0.00 0.00 91 1014.8
20260508040515 22 297 0.0 1.6 0.00 0.00 0.00 91 1014.9
20260508035515 22 297 0.0 1.6 0.00 0.00 0.00 90 1014.8
20260508034516 23 292 0.0 3.2 0.00 0.00 0.00 90 1014.9
20260508033515 23 271 0.0 1.6 0.00 0.00 0.00 90 1014.9
20260508032516 23 272 0.0 3.2 0.00 0.00 0.00 90 1014.9
20260508031515 23 277 0.0 1.6 0.00 0.00 0.00 89 1014.9
20260508030515 23 243 0.0 1.6 0.00 0.00 0.00 89 1014.8
20260508025518 23 257 0.0 3.2 0.00 0.00 0.00 89 1014.8
20260508024537 23 251 0.0 3.2 0.00 0.00 0.00 88 1014.7
20260508023518 23 258 0.0 3.2 0.00 0.00 0.00 88 1014.6
20260508022518 23 278 0.0 3.2 0.00 0.00 0.00 87 1014.6
20260508021517 23 281 0.0 1.6 0.00 0.00 0.00 86 1014.5
20260508020518 24 266 1.6 6.4 0.00 0.00 0.00 86 1014.3
20260508015518 24 291 1.6 8.0 0.00 0.00 0.00 85 1014.4
20260508014518 24 270 1.6 4.8 0.00 0.00 0.00 84 1014.4
20260508013518 25 295 1.6 4.8 0.00 0.00 0.00 83 1014.5
20260508012518 25 275 1.6 3.2 0.00 0.00 0.00 82 1014.5
20260508011518 25 265 0.0 3.2 0.00 0.00 0.00 80 1014.4
20260508010518 25 292 1.6 4.8 0.00 0.00 0.00 78 1014.5
20260508005516 26 252 1.6 4.8 0.00 0.00 0.00 76 1014.5
20260508004558 26 289 1.6 4.8 0.00 0.00 0.00 74 1014.5
20260508003518 26 277 1.6 4.8 0.00 0.00 0.00 72 1014.6
20260508002517 27 275 1.6 4.8 0.00 0.00 0.00 70 1014.5
20260508001518 28 275 1.6 6.4 0.00 0.00 0.00 68 1014.5
20260508000518 28 269 1.6 8.0 0.00 0.00 0.00 64 1014.4
20260507235517 30 273 1.6 8.0 0.00 0.00 0.00 61 1014.3
20260507234517 31 290 1.6 4.8 0.00 0.00 0.00 58 1014.2
20260507233518 32 254 1.6 6.4 0.00 0.00 0.00 56 1014.2
20260507232518 32 255 3.2 8.0 0.00 0.00 0.00 55 1014.2
20260507231517 33 250 3.2 8.0 0.00 0.00 0.00 52 1014.1
20260507230518 33 247 3.2 8.0 0.00 0.00 0.00 50 1014.0
20260507225558 33 247 3.2 9.7 0.00 0.00 0.00 48 1014.0
20260507224518 34 235 3.2 9.7 0.00 0.00 0.00 47 1014.0
20260507223518 34 255 1.6 9.7 0.00 0.00 0.00 46 1013.9
20260507222516 34 293 3.2 9.7 0.00 0.00 0.00 43 1014.0
20260507221518 34 262 3.2 8.0 0.00 0.00 0.00 43 1014.1
20260507220538 34 258 3.2 8.0 0.00 0.00 0.00 41 1014.0
20260507215539 33 285 4.8 11.3 0.00 0.00 0.00 40 1014.0
20260507214518 35 309 6.4 11.3 0.00 0.00 0.00 39 1014.0
20260507213517 35 250 4.8 11.3 0.00 0.00 0.00 39 1014.0
20260507212519 34 252 3.2 12.9 0.00 0.00 0.00 39 1013.9
20260507211518 33 270 3.2 11.3 0.00 0.00 0.00 40 1014.0
20260507210517 35 302 4.8 11.3 0.00 0.00 0.00 38 1014.0
20260507205517 34 277 3.2 9.7 0.00 0.00 0.00 37 1014.1
20260507204538 35 285 4.8 12.9 0.00 0.00 0.00 33 1014.1
20260507203518 35 274 4.8 12.9 0.00 0.00 0.00 37 1014.1
20260507202519 35 250 4.8 14.5 0.00 0.00 0.00 41 1014.1
20260507201518 35 257 3.2 11.3 0.00 0.00 0.00 41 1014.2
20260507200518 35 252 4.8 12.9 0.00 0.00 0.00 40 1014.3
20260507195518 35 257 4.8 12.9 0.00 0.00 0.00 37 1014.4
20260507194518 35 243 4.8 9.7 0.00 0.00 0.00 41 1014.5
20260507193518 35 254 4.8 12.9 0.00 0.00 0.00 39 1014.6
20260507192538 35 260 4.8 12.9 0.00 0.00 0.00 41 1014.7
20260507191518 34 263 4.8 17.7 0.00 0.00 0.00 42 1014.8
20260507190517 34 272 4.8 14.5 0.00 0.00 0.00 39 1015.0
20260507185538 34 288 6.4 14.5 0.00 0.00 0.00 43 1015.0
20260507184538 34 292 4.8 14.5 0.00 0.00 0.00 45 1015.3
20260507183538 35 291 6.4 14.5 0.00 0.00 0.00 45 1015.2
20260507182518 35 258 4.8 12.9 0.00 0.00 0.00 43 1015.4
20260507181518 35 255 4.8 12.9 0.00 0.00 0.00 43 1015.5
20260507180518 35 311 3.2 11.3 0.00 0.00 0.00 46 1015.5
20260507175518 34 294 4.8 8.0 0.00 0.00 0.00 47 1015.6
20260507174518 34 297 4.8 9.7 0.00 0.00 0.00 49 1015.7
20260507173518 35 268 3.2 8.0 0.00 0.00 0.00 51 1015.7
20260507172538 35 240 3.2 9.7 0.00 0.00 0.00 52 1015.7
20260507171518 36 280 1.6 8.0 0.00 0.00 0.00 51 1015.8
20260507170538 36 234 1.6 8.0 0.00 0.00 0.00 48 1015.9
20260507165539 36 221 1.6 6.4 0.00 0.00 0.00 49 1016.0
20260507164518 36 285 1.6 9.7 0.00 0.00 0.00 49 1016.0
20260507163618 36 304 1.6 8.0 0.00 0.00 0.00 51 1016.1
20260507162516 36 276 1.6 11.3 0.00 0.00 0.00 54 1016.1
20260507161518 35 228 0.0 9.7 0.00 0.00 0.00 55 1016.3
20260507160538 35 267 1.6 8.0 0.00 0.00 0.00 57 1016.4
20260507155518 34 238 1.6 8.0 0.00 0.00 0.00 58 1016.6
20260507154517 33 193 1.6 4.8 0.00 0.00 0.00 59 1016.7
20260507153519 33 236 1.6 9.7 0.00 0.00 0.00 60 1016.8
20260507152518 34 220 1.6 8.0 0.00 0.00 0.00 60 1016.9
20260507151517 33 232 1.6 6.4 0.00 0.00 0.00 61 1016.9
20260507150518 33 251 1.6 8.0 0.00 0.00 0.00 63 1016.9
20260507145518 33 212 1.6 4.8 0.00 0.00 0.00 65 1016.9
20260507144518 33 230 3.2 8.0 0.00 0.00 0.00 66 1016.9
20260507143517 32 234 1.6 8.0 0.00 0.00 0.00 67 1016.9
20260507142538 32 223 1.6 8.0 0.00 0.00 0.00 70 1016.9
20260507141538 32 225 1.6 11.3 0.00 0.00 0.00 71 1016.9
20260507140517 32 223 1.6 6.4 0.00 0.00 0.00 70 1017.0
20260507135518 32 212 1.6 3.2 0.00 0.00 0.00 71 1017.0
20260507135018 31 263 0.0 3.2 0.00 0.00 0.00 72 1017.0
20260507134018 31 61 0.0 3.2 0.00 0.00 0.00 74 1017.0
20260507133018 30 223 0.0 3.2 0.00 0.00 0.00 77 1016.9
20260507132018 29 79 0.0 3.2 0.00 0.00 0.00 78 1017.0
20260507131018 28 86 0.0 3.2 0.00 0.00 0.00 80 1017.0
20260507130017 28 96 1.6 4.8 0.00 0.00 0.00 82 1016.8
20260507125018 27 197 0.0 3.2 0.00 0.00 0.00 85 1016.9
20260507124018 27 118 0.0 1.6 0.00 0.00 0.00 88 1016.9
20260507123017 26 0.0 1.6 0.00 0.00 0.00 90 1017.0
20260507122038 25 92 0.0 1.6 0.00 0.00 0.00 92 1017.1
20260507121018 24 92 0.0 1.6 0.00 0.00 0.00 93 1016.9
20260507120017 23 0.0 0.0 0.00 0.00 0.00 94 1016.8
20260507115018 22 0.0 0.0 0.00 0.00 0.00 94 1016.7
20260507114018 21 0.0 0.0 0.00 0.00 0.00 93 1016.6
20260507113038 21 0.0 0.0 0.00 0.00 0.00 93 1016.4
20260507112018 20 0.0 0.0 0.00 0.00 0.00 93 1016.3
20260507111018 20 0.0 0.0 0.00 0.00 0.00 92 1016.1
20260507110038 20 0.0 0.0 0.00 0.00 0.00 92 1015.9
20260507105018 20 0.0 0.0 0.00 0.00 0.00 92 1015.7
20260507104018 20 0.0 1.6 0.00 0.00 0.00 92 1015.6
20260507103018 20 0.0 0.0 0.00 0.00 0.00 92 1015.6
20260507102018 20 0.0 0.0 0.00 0.00 0.00 92 1015.3
20260507101018 20 0.0 0.0 0.00 0.00 0.00 92 1015.1
20260507100017 20 94 0.0 1.6 0.00 0.00 0.00 92 1015.1
20260507095038 20 0.0 0.0 0.00 0.00 0.00 92 1015.0
20260507094018 20 0.0 1.6 0.00 0.00 0.00 92 1014.9
20260507093016 20 0.0 0.0 0.00 0.00 0.00 91 1014.9
20260507092016 20 0.0 0.0 0.00 0.00 0.00 91 1014.8
20260507091016 20 0.0 0.0 0.00 0.00 0.00 91 1014.8
20260507090015 20 0.0 0.0 0.00 0.00 0.00 91 1014.8
20260507085016 20 0.0 0.0 0.00 0.00 0.00 91 1014.7
20260507084016 20 0.0 0.0 0.00 0.00 0.00 91 1014.8
20260507083015 20 0.0 0.0 0.00 0.00 0.00 91 1015.0